Date String (YYYY-MM-DD hh:mm:ss) UTC,Instrument flags,Ambient pressure (hPa),Sample flow (lpm),Bypass flow (lpm),Sample temperature (°C),Ambient temperature (°C),ASC tube jacket temperature (°C),LED temperature (°C),Box temperature (°C),Sample RH (%),Span deviation,Mass concentration (μg/m³),Mass concentration (μg/m³),Mass concentration (μg/m³)
DateTimeUTC,F1_M11,P_M11,Q1_M11,Q2_M11,T1_M11,T2_M11,T3_M11,T4_M11,T5_M11,U1_M11,ZSPAN_M11,X0_M11,X2_M11,X1_M11
2022-05-09 14:00:00,,0811.7,5.01,0.00,26.0,25.4,00.0,34.9,27.9,23.8,0000.0,0012.23,0006.59,0004.92
2022-05-09 14:01:00,,0811.7,4.99,0.00,26.0,25.4,00.0,34.9,27.9,23.7,0000.0,0011.91,0006.61,0004.93
2022-05-09 14:02:00,,0811.6,5.00,0.00,26.0,25.4,00.0,34.9,27.9,23.8,0000.0,0011.66,0006.58,0004.93
2022-05-09 14:03:00,,0811.6,5.00,0.00,26.0,25.4,00.0,34.9,27.9,23.8,0000.0,0011.79,0006.63,0004.94
2022-05-09 14:04:00,,0811.6,5.01,0.00,26.0,25.4,00.0,34.9,27.9,23.8,0000.0,0011.70,0006.59,0004.94
2022-05-09 14:05:00,,0811.6,4.98,0.00,26.0,25.4,00.0,34.9,27.9,23.7,0000.0,0011.63,0006.59,0004.95
2022-05-09 14:06:00,,0811.7,5.00,0.00,26.1,25.5,00.0,35.0,28.0,23.7,0000.0,0011.70,0006.60,0004.96
2022-05-09 14:07:00,,0811.7,5.01,0.00,26.1,25.5,00.0,35.0,28.0,23.7,0000.0,0011.81,0006.67,0004.98
2022-05-09 14:08:00,,0811.7,4.99,0.00,26.1,25.6,00.0,35.0,28.1,23.9,0000.0,0011.78,0006.70,0005.02
2022-05-09 14:09:00,,0811.7,4.99,0.00,26.1,25.6,00.0,35.0,28.1,23.8,0000.0,0011.61,0006.68,0005.05
2022-05-09 14:10:00,,0811.7,5.01,0.00,26.2,25.6,00.0,35.0,28.1,23.8,0000.0,0011.45,0006.64,0005.06
2022-05-09 14:11:00,,0811.7,5.00,0.00,26.2,25.6,00.0,35.0,28.1,23.6,0000.0,0011.48,0006.66,0005.08
2022-05-09 14:12:00,,0811.7,4.99,0.00,26.2,25.6,00.0,35.0,28.1,23.6,0000.0,0011.47,0006.65,0005.10
2022-05-09 14:13:00,,0811.7,5.01,0.00,26.2,25.6,00.0,35.0,28.2,23.7,0000.0,0011.63,0006.70,0005.12
2022-05-09 14:14:00,,0811.7,5.00,0.00,26.2,25.7,00.0,35.1,28.2,23.6,0000.0,0011.46,0006.67,0005.14
2022-05-09 14:15:00,,0811.7,5.00,0.00,26.2,25.7,00.0,35.1,28.1,23.8,0000.0,0011.32,0006.62,0005.14
2022-05-09 14:16:00,,0811.7,4.99,0.00,26.2,25.7,00.0,35.1,28.1,23.8,0000.0,0011.17,0006.58,0005.15
2022-05-09 14:17:00,,0811.7,5.00,0.00,26.2,25.6,00.0,35.1,28.1,23.7,0000.0,0011.09,0006.59,0005.16
2022-05-09 14:18:00,,0811.7,5.01,0.00,26.2,25.6,00.0,35.1,28.1,23.8,0000.0,0010.97,0006.54,0005.16
2022-05-09 14:19:00,,0811.7,5.01,0.00,26.2,25.5,00.0,35.1,28.0,23.6,0000.0,0011.17,0006.56,0005.16
2022-05-09 14:20:00,,0811.7,5.00,0.00,26.2,25.5,00.0,35.1,28.0,23.7,0000.0,0011.42,0006.60,0005.16
2022-05-09 14:21:00,,0811.7,5.00,0.00,26.2,25.4,00.0,35.1,28.0,23.8,0000.0,0011.55,0006.65,0005.18
2022-05-09 14:22:00,,0811.7,4.99,0.00,26.1,25.4,00.0,35.1,28.0,24.0,0000.0,0011.66,0006.71,0005.20
2022-05-09 14:23:00,,0811.7,5.01,0.00,26.1,25.4,00.0,35.1,28.0,24.1,0000.0,0011.71,0006.73,0005.19
2022-05-09 14:24:00,,0811.7,5.01,0.00,26.2,25.5,00.0,35.1,28.0,23.8,0000.0,0011.61,0006.73,0005.18
2022-05-09 14:25:00,,0811.7,5.00,0.00,26.2,25.5,00.0,35.1,28.0,23.9,0000.0,0011.72,0006.76,0005.19
2022-05-09 14:26:00,,0811.7,5.00,0.00,26.2,25.5,00.0,35.1,28.0,23.8,0000.0,0011.73,0006.78,0005.20
2022-05-09 14:27:00,,0811.7,5.00,0.00,26.2,25.5,00.0,35.1,28.0,23.8,0000.0,0011.93,0006.87,0005.23
2022-05-09 14:28:00,,0811.7,5.01,0.00,26.2,25.5,00.0,35.1,28.0,24.0,0000.0,0011.97,0006.86,0005.25
2022-05-09 14:29:00,,0811.7,5.00,0.00,26.2,25.5,00.0,35.1,28.0,23.9,0000.0,0011.89,0006.82,0005.27
2022-05-09 14:30:00,,0811.6,5.00,0.00,26.2,25.5,00.0,35.1,28.0,24.0,0000.0,0011.97,0006.85,0005.29
2022-05-09 14:31:00,,0811.6,4.99,0.00,26.2,25.5,00.0,35.1,28.1,23.9,0000.0,0011.78,0006.83,0005.30
2022-05-09 14:32:00,,0811.6,5.00,0.00,26.2,25.6,00.0,35.1,28.1,23.7,0000.0,0011.85,0006.84,0005.31
2022-05-09 14:33:00,,0811.7,5.01,0.00,26.2,25.6,00.0,35.1,28.1,24.4,0000.0,0011.92,0006.81,0005.32
2022-05-09 14:34:00,,0811.6,4.99,0.00,26.2,25.7,00.0,35.1,28.2,23.9,0000.0,0012.06,0006.79,0005.36
2022-05-09 14:35:00,,0811.6,5.00,0.00,26.3,25.7,00.0,35.2,28.2,23.6,0000.0,0012.45,0006.82,0005.38
2022-05-09 14:36:00,,0811.7,5.00,0.00,26.3,25.7,00.0,35.2,28.2,23.6,-001.3,0012.44,0006.77,0005.40
2022-05-09 14:37:00,,0811.7,4.99,0.00,26.3,25.7,00.0,35.2,28.3,23.6,-000.1,0012.43,0006.79,0005.42
2022-05-09 14:38:00,,0811.7,5.01,0.00,26.3,25.8,00.0,35.2,28.3,23.7,0000.0,0012.58,0006.79,0005.43
2022-05-09 14:39:00,,0811.7,5.00,0.00,26.4,25.8,00.0,35.2,28.3,23.6,0000.0,0012.52,0006.76,0005.43
2022-05-09 14:40:00,,0811.7,5.00,0.00,26.4,25.8,00.0,35.2,28.4,23.6,-000.3,0012.64,0006.84,0005.45
2022-05-09 14:41:00,,0811.6,5.00,0.00,26.4,25.8,00.0,35.2,28.4,23.9,-003.6,0012.49,0006.83,0005.45
2022-05-09 14:42:00,,0811.5,5.02,0.00,26.4,25.9,00.0,35.2,28.4,23.5,-003.0,0012.50,0006.85,0005.46
2022-05-09 14:43:00,,0811.7,5.00,0.00,26.4,25.9,00.0,35.3,28.4,23.7,-001.2,0012.69,0006.89,0005.49
2022-05-09 14:44:00,,0811.7,4.99,0.00,26.5,25.9,00.0,35.3,28.4,23.7,-000.1,0012.58,0006.90,0005.49
2022-05-09 14:45:00,,0811.8,5.00,0.00,26.5,25.9,00.0,35.3,28.4,23.7,0000.0,0012.59,0006.91,0005.48
2022-05-09 14:46:00,,0811.8,5.00,0.00,26.5,25.9,00.0,35.3,28.4,23.6,0000.0,0012.02,0006.91,0005.47
2022-05-09 14:47:00,,0811.8,5.01,0.00,26.5,25.9,00.0,35.3,28.4,23.7,0000.0,0011.89,0006.94,0005.48
2022-05-09 14:48:00,,0811.7,4.99,0.00,26.5,25.9,00.0,35.3,28.4,23.4,0000.0,0011.89,0006.95,0005.49
2022-05-09 14:49:00,,0811.7,4.99,0.00,26.5,25.9,00.0,35.3,28.4,23.4,0000.0,0011.68,0006.92,0005.50
2022-05-09 14:50:00,,0811.7,5.01,0.00,26.5,25.9,00.0,35.3,28.5,23.2,0000.0,0011.57,0006.98,0005.52
2022-05-09 14:51:00,,0811.8,5.00,0.00,26.5,26.0,00.0,35.4,28.5,23.3,0000.0,0011.87,0007.01,0005.54
2022-05-09 14:52:00,,0811.8,5.00,0.00,26.6,26.0,00.0,35.4,28.5,23.5,0000.0,0012.07,0007.02,0005.55
2022-05-09 14:53:00,,0811.8,4.99,0.00,26.6,26.0,00.0,35.4,28.5,23.3,0000.0,0012.24,0007.07,0005.56
2022-05-09 14:54:00,,0811.8,5.01,0.00,26.6,26.0,00.0,35.4,28.6,23.2,0000.0,0012.23,0007.12,0005.57
2022-05-09 14:55:00,,0811.7,5.00,0.00,26.6,26.1,00.0,35.4,28.6,23.4,0000.0,0012.17,0007.13,0005.58
2022-05-09 14:56:00,,0811.7,4.99,0.00,26.7,26.1,00.0,35.5,28.6,23.7,0000.0,0012.44,0007.22,0005.60
2022-05-09 14:57:00,,0811.6,5.00,0.00,26.7,26.1,00.0,35.5,28.6,23.4,0000.0,0012.41,0007.22,0005.63
2022-05-09 14:58:00,,0811.7,5.01,0.00,26.7,26.1,00.0,35.5,28.6,23.9,0000.0,0012.47,0007.26,0005.64
2022-05-09 14:59:00,,0811.7,5.00,0.00,26.7,26.1,00.0,35.5,28.6,23.8,0000.0,0012.73,0007.25,0005.62
